Conway, MI

7:08 AM EDT on August 30, 2016 (GMT -0400)
Harbor Springs

Weather History for KMGN - October, 2013

Change the Weather History Date:

Saturday, October 26, 2013

  Actual Average (KPLN) Record (KPLN)
Temperature  
Mean Temperature 43 °F -  
Max Temperature 49 °F 53 °F 74 °F (1989)
Min Temperature 37 °F 35 °F 19 °F (1990)
Degree Days  
Heating Degree Days 22    
Moisture  
Dew Point 38 °F    
Average Humidity 81    
Maximum Humidity 95    
Minimum Humidity 66    
Precipitation  
Precipitation 0.00 in - - ()
Sea Level Pressure  
Sea Level Pressure 29.71 in    
Wind  
Wind Speed 15 mph (West)    
Max Wind Speed 22 mph    
Max Gust Speed 32 mph    
Visibility 9 miles    
Events Rain    
Averages and records for this station are not official NWS values.
T = Trace of Precipitation, MM = Missing Value Source: NWS Daily Summary

Daily Weather History Graph

Daily Weather History Graph

Search for Another Location

Airport or City:

Trip Planner

Search our weather history database for the weather conditions in past years. The results will help you decide how hot, cold, wet, or windy it might be!

Date:

Astronomy

Oct. 26, 2013 Rise Set
Actual Time 8:11 AM EDT 6:35 PM EDT
Civil Twilight 7:40 AM EDT 7:05 PM EDT
Nautical Twilight 7:05 AM EDT 7:40 PM EDT
Astronomical Twilight 6:31 AM EDT 8:14 PM EDT
Moon No Moon Rise 2:29 PM EDT (10/26)
Length of Visible Light 11h 25m
Length of Day
10h 24m
Waning Gibbous, 53% of the Moon is Illuminated
Oct 26
Waning Gibbous
Oct 26
Last Quarter
Nov 3
New
Nov 10
First Quarter
Nov 17
Full

Hourly Weather History & Observations

Time (EDT) Temp. Windchill Dew Point Humidity Pressure Visibility Wind Dir Wind Speed Gust Speed Precip Events Conditions
12:15 AM 42.3 °F 33.1 °F 39.4 °F 90% 29.76 in 4.0 mi SW 21.9 mph 31.1 mph N/A   Overcast
12:34 AM 42.3 °F 35.1 °F 39.7 °F 91% 29.74 in 3.0 mi SSW 13.8 mph 25.3 mph N/A   Overcast
12:54 AM 42.3 °F 33.8 °F 40.1 °F 92% 29.72 in 5.0 mi SSW 18.4 mph 25.3 mph N/A Rain Rain
1:15 AM 42.3 °F 33.8 °F 40.1 °F 92% 29.69 in 10.0 mi SSW 18.4 mph 27.6 mph N/A Rain Light Rain
1:34 AM 42.3 °F 33.8 °F 40.5 °F 93% 29.67 in 10.0 mi SSW 18.4 mph 29.9 mph N/A   Drizzle
1:54 AM 42.3 °F 34.1 °F 40.6 °F 94% 29.66 in 7.0 mi SSW 17.3 mph 29.9 mph N/A Rain Light Rain
2:15 AM 42.3 °F 33.8 °F 41.0 °F 95% 29.64 in 7.0 mi SSW 18.4 mph 27.6 mph N/A Rain Light Rain
2:34 AM 42.3 °F 33.3 °F 41.0 °F 95% 29.62 in 10.0 mi SSW 20.7 mph 29.9 mph N/A Rain Rain
2:55 AM 42.3 °F 34.1 °F 41.0 °F 95% 29.61 in 10.0 mi SSW 17.3 mph 27.6 mph N/A Rain Light Rain
3:14 AM 42.3 °F 34.8 °F 41.0 °F 95% 29.59 in 10.0 mi SSW 15.0 mph 27.6 mph N/A Rain Rain
3:34 AM 42.8 °F 34.8 °F 41.5 °F 95% 29.58 in 10.0 mi SSW 17.3 mph 31.1 mph N/A   Overcast
3:55 AM 43.5 °F 36.1 °F 42.1 °F 95% 29.56 in 10.0 mi SSW 16.1 mph 28.8 mph N/A   Overcast
4:15 AM 43.7 °F 36.9 °F 42.1 °F 94% 29.56 in 10.0 mi SSW 13.8 mph 28.8 mph N/A   Drizzle
4:34 AM 44.8 °F 37.4 °F 43.3 °F 95% 29.55 in 10.0 mi SSW 17.3 mph 26.5 mph N/A   Overcast
4:55 AM 45.3 °F 38.7 °F 43.3 °F 93% 29.54 in 10.0 mi SSW 15.0 mph 26.5 mph N/A   Overcast
5:15 AM 49.5 °F - 44.8 °F 84% 29.55 in 10.0 mi WSW 13.8 mph 25.3 mph N/A   Overcast
5:34 AM 45.3 °F 40.1 °F 41.7 °F 87% 29.55 in 7.0 mi West 10.4 mph 32.2 mph N/A Rain Light Rain
5:55 AM 47.7 °F - 43.5 °F 86% 29.56 in 10.0 mi West 11.5 mph 20.7 mph N/A   Mostly Cloudy
6:15 AM 47.7 °F - 42.3 °F 82% 29.57 in 10.0 mi West 13.8 mph 20.7 mph N/A   Overcast
6:34 AM 47.7 °F - 40.6 °F 77% 29.58 in 10.0 mi West 10.4 mph 21.9 mph N/A   Overcast
6:55 AM 47.3 °F - 39.7 °F 75% 29.57 in 10.0 mi West 17.3 mph 24.2 mph N/A   Mostly Cloudy
7:14 AM 47.3 °F - 39.2 °F 73% 29.58 in 10.0 mi West 12.7 mph 20.7 mph N/A   Scattered Clouds
7:34 AM 46.4 °F 42.9 °F 38.1 °F 73% 29.58 in 10.0 mi West 6.9 mph 16.1 mph N/A   Clear
7:55 AM 47.1 °F - 37.2 °F 68% 29.58 in 10.0 mi WNW 11.5 mph 20.7 mph N/A   Clear
8:14 AM 46.9 °F - 37.0 °F 68% 29.59 in 10.0 mi WNW 11.5 mph 17.3 mph N/A   Clear
8:34 AM 47.3 °F - 37.9 °F 70% 29.59 in 10.0 mi West 9.2 mph 20.7 mph N/A   Mostly Cloudy
8:55 AM 47.7 °F - 38.3 °F 70% 29.60 in 10.0 mi West 10.4 mph 17.3 mph N/A   Mostly Cloudy
9:14 AM 47.7 °F - 38.7 °F 71% 29.61 in 10.0 mi West 17.3 mph 27.6 mph N/A Rain Light Rain
9:34 AM 46.4 °F 40.1 °F 38.1 °F 73% 29.62 in 10.0 mi West 15.0 mph 20.7 mph N/A   Mostly Cloudy
9:55 AM 47.5 °F - 38.8 °F 72% 29.62 in 10.0 mi West 17.3 mph 21.9 mph N/A   Mostly Cloudy
10:14 AM 45.5 °F 39.2 °F 36.0 °F 69% 29.63 in 10.0 mi West 13.8 mph 24.2 mph N/A   Mostly Cloudy
10:34 AM 44.4 °F 37.2 °F 35.8 °F 72% 29.63 in 10.0 mi WNW 16.1 mph 26.5 mph N/A   Overcast
10:55 AM 42.3 °F 36.3 °F 36.5 °F 80% 29.65 in 10.0 mi WNW 10.4 mph 17.3 mph N/A   Overcast
11:14 AM 43.7 °F 37.7 °F 35.8 °F 74% 29.65 in 10.0 mi West 11.5 mph 25.3 mph N/A   Overcast
11:34 AM 44.1 °F 36.2 °F 35.2 °F 71% 29.66 in 10.0 mi West 18.4 mph 23.0 mph N/A   Overcast
11:55 AM 44.1 °F 40.1 °F 34.7 °F 70% 29.66 in 7.0 mi West 6.9 mph 19.6 mph N/A   Scattered Clouds
12:14 PM 45.9 °F 39.4 °F 34.9 °F 66% 29.67 in 10.0 mi West 15.0 mph 23.0 mph N/A   Mostly Cloudy
12:34 PM 46.6 °F - 36.9 °F 69% 29.68 in 7.0 mi WNW 19.6 mph 24.2 mph N/A   Light Drizzle
12:55 PM 47.3 °F - 37.6 °F 69% 29.68 in 10.0 mi West 16.1 mph 29.9 mph N/A   Overcast
1:14 PM 44.8 °F 38.3 °F 35.6 °F 70% 29.69 in 10.0 mi West 13.8 mph 25.3 mph N/A   Overcast
1:34 PM 47.1 °F - 37.2 °F 68% 29.69 in 10.0 mi West 16.1 mph 28.8 mph N/A   Overcast
1:55 PM 46.2 °F 39.5 °F 36.5 °F 69% 29.69 in 10.0 mi WNW 16.1 mph 32.2 mph N/A   Overcast
2:14 PM 46.9 °F - 36.9 °F 68% 29.70 in 10.0 mi West 16.1 mph 25.3 mph N/A   Overcast
2:34 PM 47.3 °F - 37.4 °F 68% 29.71 in 10.0 mi West 17.3 mph 23.0 mph N/A   Overcast
2:55 PM 46.2 °F 39.8 °F 38.3 °F 74% 29.71 in 7.0 mi WNW 15.0 mph 25.3 mph N/A Rain Light Rain
3:14 PM 43.7 °F 36.6 °F 36.9 °F 77% 29.72 in 7.0 mi West 15.0 mph 19.6 mph N/A Rain Light Rain
3:35 PM 44.6 °F 36.9 °F 37.6 °F 76% 29.73 in 7.0 mi West 18.4 mph 26.5 mph N/A Rain Light Rain
3:55 PM 43.7 °F 37.7 °F 38.3 °F 81% 29.74 in 7.0 mi West 11.5 mph 23.0 mph N/A Rain Light Rain
4:14 PM 44.2 °F 37.0 °F 37.6 °F 77% 29.75 in 7.0 mi West 16.1 mph 26.5 mph N/A Rain Light Rain
4:34 PM 42.3 °F 35.1 °F 37.8 °F 84% 29.76 in 7.0 mi WNW 13.8 mph 18.4 mph N/A Rain Light Rain
4:55 PM 42.3 °F 35.5 °F 38.1 °F 85% 29.77 in 7.0 mi WNW 12.7 mph 17.3 mph N/A Rain Light Rain
5:14 PM 42.6 °F 36.8 °F 37.6 °F 82% 29.79 in 10.0 mi WNW 10.4 mph 17.3 mph N/A   Overcast
5:35 PM 42.3 °F 35.5 °F 36.7 °F 81% 29.80 in 10.0 mi WNW 12.7 mph 20.7 mph N/A   Mostly Cloudy
5:54 PM 42.3 °F 37.9 °F 36.5 °F 80% 29.81 in 10.0 mi WNW 6.9 mph 16.1 mph N/A   Mostly Cloudy
6:14 PM 41.7 °F 35.2 °F 35.4 °F 78% 29.82 in 10.0 mi NW 11.5 mph 19.6 mph N/A   Scattered Clouds
6:35 PM 39.6 °F 31.7 °F 35.4 °F 85% 29.84 in 3.0 mi NW 13.8 mph 23.0 mph N/A Rain Rain
6:54 PM 38.3 °F 32.5 °F 34.9 °F 87% 29.86 in 3.0 mi NW 8.1 mph 20.7 mph N/A Rain Light Rain
7:14 PM 39.2 °F 37.0 °F 36.3 °F 89% 29.86 in 10.0 mi North 3.5 mph - N/A   Mostly Cloudy
7:35 PM 39.6 °F 30.6 °F 36.1 °F 88% 29.88 in 5.0 mi WNW 17.3 mph 24.2 mph N/A Rain Light Rain
7:54 PM 37.0 °F 28.5 °F 34.0 °F 89% 29.88 in 2.5 mi WNW 13.8 mph 21.9 mph N/A Rain Light Rain
8:14 PM 37.0 °F 30.4 °F 34.2 °F 89% 29.89 in 5.0 mi NNW 9.2 mph 16.1 mph N/A Rain Rain
8:35 PM 37.2 °F 31.2 °F 34.9 °F 91% 29.89 in 7.0 mi WNW 8.1 mph - N/A Rain Light Rain
8:54 PM 37.4 °F 32.1 °F 34.3 °F 89% 29.89 in 10.0 mi WNW 6.9 mph - N/A   Mostly Cloudy
9:14 PM 38.3 °F 31.4 °F 34.5 °F 86% 29.90 in 10.0 mi WNW 10.4 mph 17.3 mph N/A   Scattered Clouds
9:35 PM 39.6 °F 35.4 °F 35.2 °F 85% 29.90 in 10.0 mi NW 5.8 mph - N/A   Mostly Cloudy
9:54 PM 39.0 °F 34.0 °F 34.7 °F 84% 29.91 in 10.0 mi WNW 6.9 mph - N/A   Mostly Cloudy
10:14 PM 38.5 °F 32.1 °F 33.6 °F 83% 29.91 in 10.0 mi WNW 9.2 mph - N/A   Scattered Clouds
10:35 PM 38.1 °F 32.3 °F 33.8 °F 84% 29.92 in 7.0 mi WNW 8.1 mph - N/A Rain Light Rain
10:54 PM 38.3 °F 33.9 °F 33.8 °F 84% 29.92 in 10.0 mi WNW 5.8 mph - N/A   Mostly Cloudy
11:14 PM 39.0 °F 34.8 °F 34.2 °F 83% 29.92 in 10.0 mi WNW 5.8 mph - N/A   Light Drizzle
11:35 PM 37.6 °F 32.3 °F 32.9 °F 83% 29.93 in 10.0 mi West 6.9 mph - N/A   Scattered Clouds
11:54 PM 37.4 °F 33.8 °F 32.5 °F 83% 29.92 in 10.0 mi West 4.6 mph - N/A   Scattered Clouds